Istanbul, Turkey

7:07 AM +03 on May 30, 2017 (GMT +0300)
Ataturk

Weather History for LTBA - March, 2012

Change the Weather History Date:

Sunday, March 18, 2012

  Actual Average Record
Temperature  
Mean Temperature 50 °F -  
Max Temperature 58 °F 56 °F 64 °F (2001)
Min Temperature 43 °F 43 °F 31 °F (2013)
Degree Days  
Heating Degree Days 14    
Moisture  
Dew Point 36 °F    
Average Humidity 62    
Maximum Humidity 100    
Minimum Humidity 35    
Precipitation  
Precipitation 0.00 in - - ()
Sea Level Pressure  
Sea Level Pressure 30.36 in    
Wind  
Wind Speed 6 mph ()    
Max Wind Speed 12 mph    
Max Gust Speed -    
Visibility 6.0 miles    
Events      
Averages and records for this station are not official NWS values.
T = Trace of Precipitation, MM = Missing Value Source: Averaged Metar Reports

Daily Weather History Graph

Daily Weather History Graph

Search for Another Location

Airport or City:

Trip Planner

Search our weather history database for the weather conditions in past years. The results will help you decide how hot, cold, wet, or windy it might be!

Date:

Astronomy

Mar. 18, 2012 Rise Set
Actual Time 6:11 AM EET 6:14 PM EET
Civil Twilight 5:43 AM EET 6:42 PM EET
Nautical Twilight 5:11 AM EET 7:14 PM EET
Astronomical Twilight 4:39 AM EET 7:46 PM EET
Moon 3:40 AM EET (3/18) 2:19 PM EET (3/18)
Length of Visible Light 12h 58m
Length of Day
12h 03m
Waning Crescent, 17% of the Moon is Illuminated
Mar 18
Waning Crescent
Mar 22
New
Mar 30
First Quarter
Apr 6
Full
Apr 13
Last Quarter

Hourly Weather History & Observations

Time (EET) Temp. Windchill Dew Point Humidity Pressure Visibility Wind Dir Wind Speed Gust Speed Precip Events Conditions
12:20 AM 44.6 °F 43.1 °F 35.6 °F 71% 30.39 in - West 3.5 mph - N/A   Clear
12:50 AM 44.6 °F 42.2 °F 35.6 °F 71% 30.39 in - WSW 4.6 mph - N/A   Clear
1:20 AM 44.6 °F 42.2 °F 35.6 °F 71% 30.39 in - WSW 4.6 mph - N/A   Clear
1:50 AM 44.6 °F 42.2 °F 37.4 °F 76% 30.39 in - WSW 4.6 mph - N/A   Clear
2:00 AM 44 °F - 36 °F 66% 30.40 in 6 mi WSW 4.6 mph - -  
2:20 AM 44.6 °F 42.2 °F 39.2 °F 81% 30.39 in - WSW 4.6 mph - N/A   Clear
2:50 AM 42.8 °F 40.1 °F 39.2 °F 87% 30.36 in - West 4.6 mph - N/A   Clear
3:20 AM 42.8 °F 39.3 °F 39.2 °F 87% 30.36 in - West 5.8 mph - N/A   Clear
3:50 AM 44.6 °F 40.7 °F 37.4 °F 76% 30.36 in - WSW 6.9 mph - N/A   Clear
4:20 AM 42.8 °F 38.6 °F 35.6 °F 76% 30.36 in - WSW 6.9 mph - N/A   Clear
4:50 AM 42.8 °F 38.6 °F 37.4 °F 81% 30.36 in - WSW 6.9 mph - N/A   Clear
5:20 AM 42.8 °F 37.5 °F 37.4 °F 81% 30.36 in - WSW 9.2 mph - N/A   Clear
5:50 AM 42.8 °F 38.0 °F 37.4 °F 81% 30.36 in - WSW 8.1 mph - N/A   Clear
6:20 AM 42.8 °F 38.6 °F 35.6 °F 76% 30.36 in - WSW 6.9 mph - N/A   Clear
6:50 AM 44.6 °F 40.7 °F 35.6 °F 71% 30.36 in - WSW 6.9 mph - N/A   Clear
7:20 AM 46.4 °F 42.9 °F 35.6 °F 66% 30.39 in - SW 6.9 mph - N/A   Clear
7:50 AM 46.4 °F 41.1 °F 35.6 °F 66% 30.39 in - SW 11.5 mph - N/A   Clear
8:00 AM 47 °F - 36 °F 54% 30.40 in 6 mi SW 11.5 mph - -  
8:20 AM 48.2 °F - 35.6 °F 62% 30.39 in - SW 11.5 mph - N/A   Clear
8:50 AM 48.2 °F - 35.6 °F 62% 30.39 in - WSW 9.2 mph - N/A   Clear
9:20 AM 48.2 °F - 37.4 °F 66% 30.39 in - WSW 9.2 mph - N/A   Clear
9:50 AM 50.0 °F - 37.4 °F 62% 30.39 in - WSW 11.5 mph - N/A   Clear
10:20 AM 50.0 °F - 37.4 °F 62% 30.39 in - WSW 10.4 mph - N/A   Clear
10:50 AM 50.0 °F - 35.6 °F 58% 30.39 in - WSW 10.4 mph - N/A   Clear
11:20 AM 51.8 °F - 39.2 °F 62% 30.39 in - WSW 9.2 mph - N/A   Clear
11:50 AM 51.8 °F - 35.6 °F 54% 30.39 in - WSW 10.4 mph - N/A   Clear
12:20 PM 51.8 °F - 35.6 °F 54% 30.39 in - WSW 9.2 mph - N/A   Clear
12:50 PM 53.6 °F - 37.4 °F 54% 30.39 in - WSW 10.4 mph - N/A   Clear
1:20 PM 53.6 °F - 35.6 °F 51% 30.39 in - WSW 8.1 mph - N/A   Clear
1:50 PM 55.4 °F - 33.8 °F 44% 30.36 in - SW 8.1 mph - N/A   Clear
2:00 PM 55 °F - 35 °F 35% 30.39 in 6 mi SW 8.1 mph - -  
2:20 PM 55.4 °F - 32.0 °F 41% 30.36 in - SW 8.1 mph - N/A   Clear
2:50 PM 57.2 °F - 32.0 °F 38% 30.36 in - WSW 5.8 mph - N/A   Clear
3:20 PM 57.2 °F - 33.8 °F 41% 30.36 in - SW 5.8 mph - N/A   Clear
3:50 PM 57.2 °F - 33.8 °F 41% 30.33 in - SW 3.5 mph - N/A   Clear
4:20 PM 57.2 °F - 32.0 °F 38% 30.33 in - SW 4.6 mph - N/A   Clear
4:50 PM 57.2 °F - 33.8 °F 41% 30.33 in - West 4.6 mph - N/A   Clear
5:20 PM 57.2 °F - 33.8 °F 41% 30.33 in - WSW 4.6 mph - N/A   Clear
5:50 PM 53.6 °F - 33.8 °F 47% 30.33 in - SW 3.5 mph - N/A   Clear
6:20 PM 53.6 °F - 33.8 °F 47% 30.33 in - WSW 3.5 mph - N/A   Clear
6:50 PM 51.8 °F - 35.6 °F 54% 30.33 in - SW 4.6 mph - N/A   Clear
7:20 PM 50.0 °F - 33.8 °F 54% 30.33 in - SW 3.5 mph - N/A   Clear
7:50 PM 50.0 °F - 33.8 °F 54% 30.33 in - Variable 2.3 mph - N/A   Clear
8:00 PM 49 °F - 35 °F 47% 30.35 in 6 mi South 2.3 mph - -  
8:20 PM 50.0 °F - 35.6 °F 58% 30.33 in - Variable 2.3 mph - N/A   Clear
8:50 PM 50.0 °F - 37.4 °F 62% 30.33 in - SW 3.5 mph - N/A   Clear
9:20 PM 48.2 °F - 35.6 °F 62% 30.33 in - South 3.5 mph - N/A   Clear
9:50 PM 48.2 °F - 37.4 °F 66% 30.36 in - SSW 3.5 mph - N/A   Clear
10:20 PM 48.2 °F - 37.4 °F 66% 30.33 in - SSW 3.5 mph - N/A   Clear
10:50 PM 46.4 °F 44.3 °F 39.2 °F 76% 30.33 in - South 4.6 mph - N/A   Clear
11:20 PM 46.4 °F 44.3 °F 44.6 °F 93% 30.33 in - SSW 4.6 mph - N/A   Clear
11:50 PM 46.4 °F 43.5 °F 46.4 °F 100% 30.33 in - WSW 5.8 mph - N/A   Clear